Location: Treviso
(45.6669°N, 12.2430°E)
Time: 14:16:42
(UTC+01:00)

nSIGHT-1 - Visible Passes

Search period start: 14 November 2019 00:00
Search period end: 24 November 2019 00:00
Orbit: 330 x 337 km, 51.6° (Epoch: 14 November)

Date Brightness Start Highest point End Pass type
(mag) Time Alt. Az. Time Alt. Az. Time Alt. Az.
14 Nov ? 17:50:09 10° WSW 17:52:56 76° NNW 17:54:23 25° NE visible
15 Nov ? 18:10:21 10° W 18:13:00 37° NNW 18:13:36 32° NNE visible
16 Nov ? 18:30:40 10° WNW 18:32:43 25° NNW 18:32:43 25° NNW visible
17 Nov ? 17:15:07 10° W 17:17:48 40° NNW 17:20:30 10° NE visible
17 Nov ? 18:50:50 10° NW 18:51:43 16° NW 18:51:43 16° NW visible
18 Nov ? 17:35:14 10° WNW 17:37:43 27° N 17:39:27 15° NE visible
19 Nov ? 17:55:16 10° WNW 17:57:36 23° N 17:58:17 21° NNE visible
20 Nov ? 18:15:01 10° NW 18:17:04 24° N 18:17:04 24° N visible
21 Nov ? 18:34:29 10° NW 18:35:48 21° NNW 18:35:48 21° NNW visible
22 Nov ? 17:18:59 10° NW 17:21:21 24° N 17:23:20 12° ENE visible
22 Nov ? 18:53:48 10° WNW 18:54:30 16° NW 18:54:30 16° NW visible
23 Nov ? 17:38:19 10° NW 17:40:53 31° NNE 17:42:02 22° ENE visible
23 Nov ? 19:13:07 10° WNW 19:13:12 11° WNW 19:13:12 11° WNW visible
